Regional Weather Roundup
Issued by NWS

Home | Current Version | Previous Version | Graphics & Text | Print | Product List | Glossary On
Versions: 1 2 3 4 5 6 7 8 9 10 11 12 13 14 15 16 17 18 19 20 21 22 23 24 25 26 27 28 29 30 31 32 33 34 35 36 37 38 39 40 41 42 43 44 45 46 47 48 49 50
000
ASUS45 KCYS 300710
RWRWY

WYOMING REGIONAL WEATHER ROUNDUP
NATIONAL WEATHER SERVICE CHEYENNE WY
100 AM MDT SUN AUG 30 2015

NOTE:  "FAIR" INDICATES FEW OR NO CLOUDS BELOW 12,000 FEET
WITH NO SIGNIFICANT WEATHER AND/OR OBSTRUCTIONS TO VISIBILITY.

WYZ001-300800-
YELLOWSTONE NATIONAL PARK

CITY           SKY/WX    TMP DP  RH WIND       PRES   REMARKS
LK YELLOWSTONE   N/A     52  48  86 W9G31     30.29R
W YELLOWSTONE  NOT AVBL

$$
WYZ002>013-054>058-071-098>099-300800-
NORTHERN WYOMING

CITY           SKY/WX    TMP DP  RH WIND       PRES   REMARKS
JACKSON        MOCLDY    64  48  55 N7G16     30.11F
CODY           FAIR      77  41  27 W10G21    29.92F
GREYBULL       FAIR      69  42  37 W3        29.83R
WORLAND        FAIR      67  42  40 CALM      29.86R
SHERIDAN       FAIR      62  45  53 S5        29.83F
BUFFALO        FAIR      72  36  26 E5        29.93S
GILLETTE       FAIR      73  36  25 S18       29.89F
HULETT         FAIR      81  36  19 S21G31    29.92F
NEWCASTLE      FAIR      77  32  19 SE16      29.97F

$$
WYZ014>020-022>026-101>103-300800-
CENTRAL WYOMING

CITY           SKY/WX    TMP DP  RH WIND       PRES   REMARKS
BIG PINEY      FAIR      52  36  54 N6        30.14S
PINEDALE       FAIR      57  41  54 SE6       30.15S
DUBOIS         FAIR      55  37  50 NW10      30.12F
LANDER         FAIR      74  38  27 W14       29.98F
RIVERTON       FAIR      72  38  29 SW10      29.99S
CASPER         FAIR      67  29  24 SW12      30.02R
DOUGLAS        FAIR      63  37  38 SE8       30.02S

$$
WYZ021-027>030-104>119-300800-
SOUTHERN WYOMING

CITY           SKY/WX    TMP DP  RH WIND       PRES   REMARKS
EVANSTON       FAIR      65  36  34 S9        30.15R
KEMMERER       FAIR      63  32  31 CALM      30.17S
FORT BRIDGER   MOSUNNY   66  34  30 S14       30.17S
ROCK SPRINGS   FAIR      68  32  26 SW6       30.14R
DIXON          FAIR      54  35  48 CALM      30.20S
RAWLINS        FAIR      64  28  25 SW6       30.17F
SARATOGA       FAIR      55  37  50 SE7       30.22S
LARAMIE        FAIR      52  38  58 SW9       30.23S
CHEYENNE       FAIR      62  42  47 SW7       30.16F
TORRINGTON     FAIR      71  41  33 SE8       30.01F
PINE BLUFFS    FAIR      66  36  32 S15       30.12S

$$


USA.gov is the U.S. government's official web portal to all federal, state and local government web resources and services.